����������;��������(kWh)
2017-06-12 00:00;88,55
2017-06-12 00:15;86,5
2017-06-12 00:30;86,9
2017-06-12 00:45;93,6
2017-06-12 01:00;97,4
2017-06-12 01:15;95,5
2017-06-12 01:30;88,4
2017-06-12 01:45;88,9
2017-06-12 02:00;91,1
2017-06-12 02:15;89,7
2017-06-12 02:30;89,8
2017-06-12 02:45;88,15
2017-06-12 03:00;89,1
2017-06-12 03:15;89,75
2017-06-12 03:30;90
2017-06-12 03:45;87,05
2017-06-12 04:00;92,75
2017-06-12 04:15;92,15
2017-06-12 04:30;90,65
2017-06-12 04:45;93
2017-06-12 05:00;94,9
2017-06-12 05:15;96,85
2017-06-12 05:30;99,3
2017-06-12 05:45;102
2017-06-12 06:00;102
2017-06-12 06:15;97,25
2017-06-12 06:30;97,4
2017-06-12 06:45;94,95
2017-06-12 07:00;95,4
2017-06-12 07:15;99,2
2017-06-12 07:30;151,25
2017-06-12 07:45;114,6
2017-06-12 08:00;114,15
2017-06-12 08:15;118,25
2017-06-12 08:30;119,6
2017-06-12 08:45;126,35
2017-06-12 09:00;143,4
2017-06-12 09:15;145,75
2017-06-12 09:30;152,5
2017-06-12 09:45;201,55
2017-06-12 10:00;173,95
2017-06-12 10:15;164,9
2017-06-12 10:30;163,8
2017-06-12 10:45;184,7
2017-06-12 11:00;184,45
2017-06-12 11:15;182,45
2017-06-12 11:30;184,45
2017-06-12 11:45;184,6
2017-06-12 12:00;184,35
2017-06-12 12:15;185,6
2017-06-12 12:30;184,45
2017-06-12 12:45;187,6
2017-06-12 13:00;177,35
2017-06-12 13:15;191
2017-06-12 13:30;196,4
2017-06-12 13:45;192,05
2017-06-12 14:00;191,35
2017-06-12 14:15;193,6
2017-06-12 14:30;184,8
2017-06-12 14:45;177,7
2017-06-12 15:00;184,55
2017-06-12 15:15;175,65
2017-06-12 15:30;166,4
2017-06-12 15:45;175,25
2017-06-12 16:00;176,35
2017-06-12 16:15;158,5
2017-06-12 16:30;157,3
2017-06-12 16:45;157,65
2017-06-12 17:00;158,55
2017-06-12 17:15;162,45
2017-06-12 17:30;149,05
2017-06-12 17:45;147,4
2017-06-12 18:00;147,1
2017-06-12 18:15;148,85
2017-06-12 18:30;143,1
2017-06-12 18:45;143
2017-06-12 19:00;138,1
2017-06-12 19:15;130,7
2017-06-12 19:30;132,15
2017-06-12 19:45;131,2
2017-06-12 20:00;124,15
2017-06-12 20:15;113,3
2017-06-12 20:30;115,9
2017-06-12 20:45;119,65
2017-06-12 21:00;119
2017-06-12 21:15;116,85
2017-06-12 21:30;113,45
2017-06-12 21:45;112,55
2017-06-12 22:00;104,6
2017-06-12 22:15;102,75
2017-06-12 22:30;103,1
2017-06-12 22:45;102,3
2017-06-12 23:00;102,95
2017-06-12 23:15;99,8
2017-06-12 23:30;96,4
2017-06-12 23:45;95,65
2017-06-13 00:00;95,3
2017-06-13 00:15;96,85
2017-06-13 00:30;96,75
2017-06-13 00:45;96,65
2017-06-13 01:00;97,85
2017-06-13 01:15;91,05
2017-06-13 01:30;90,85
2017-06-13 01:45;91,6
2017-06-13 02:00;92,25
2017-06-13 02:15;91,65
2017-06-13 02:30;95,45
2017-06-13 02:45;89,15
2017-06-13 03:00;88,8
2017-06-13 03:15;87,7
2017-06-13 03:30;88
2017-06-13 03:45;88,85
2017-06-13 04:00;88
2017-06-13 04:15;87,45
2017-06-13 04:30;87,3
2017-06-13 04:45;88,4
2017-06-13 05:00;89,5
2017-06-13 05:15;93,5
2017-06-13 05:30;98,6
2017-06-13 05:45;100,5
2017-06-13 06:00;97
2017-06-13 06:15;96,3
2017-06-13 06:30;96,05
2017-06-13 06:45;99,2
2017-06-13 07:00;92,35
2017-06-13 07:15;96,45
2017-06-13 07:30;145,5
2017-06-13 07:45;105,65
2017-06-13 08:00;111,35
2017-06-13 08:15;110,65
2017-06-13 08:30;110,25
2017-06-13 08:45;128,25
2017-06-13 09:00;138,2
2017-06-13 09:15;148,15
2017-06-13 09:30;176,85
2017-06-13 09:45;145,85
2017-06-13 10:00;171,5
2017-06-13 10:15;173,65
2017-06-13 10:30;174,25
2017-06-13 10:45;177,8
2017-06-13 11:00;190,1
2017-06-13 11:15;206,95
2017-06-13 11:30;200,35
2017-06-13 11:45;194,7
2017-06-13 12:00;200,55
2017-06-13 12:15;207
2017-06-13 12:30;212,15
2017-06-13 12:45;204,1
2017-06-13 13:00;208,55
2017-06-13 13:15;210,35
2017-06-13 13:30;215,75
2017-06-13 13:45;210
2017-06-13 14:00;204,85
2017-06-13 14:15;205,55
2017-06-13 14:30;191
2017-06-13 14:45;195,9
2017-06-13 15:00;198,3
2017-06-13 15:15;188,1
2017-06-13 15:30;183,85
2017-06-13 15:45;182,6
2017-06-13 16:00;182,8
2017-06-13 16:15;166,95
2017-06-13 16:30;165,95
2017-06-13 16:45;162,65
2017-06-13 17:00;153,25
2017-06-13 17:15;152,55
2017-06-13 17:30;150,3
2017-06-13 17:45;149,6
2017-06-13 18:00;139,5
2017-06-13 18:15;139,75
2017-06-13 18:30;136,05
2017-06-13 18:45;137,8
2017-06-13 19:00;140,5
2017-06-13 19:15;130,5
2017-06-13 19:30;133,1
2017-06-13 19:45;131,75
2017-06-13 20:00;126,25
2017-06-13 20:15;126,2
2017-06-13 20:30;126,75
2017-06-13 20:45;123,6
2017-06-13 21:00;121,25
2017-06-13 21:15;116,2
2017-06-13 21:30;117,9
2017-06-13 21:45;115,4
2017-06-13 22:00;109,3
2017-06-13 22:15;107,6
2017-06-13 22:30;108,4
2017-06-13 22:45;104,8
2017-06-13 23:00;103,8
2017-06-13 23:15;102
2017-06-13 23:30;100,4
2017-06-13 23:45;96,1
2017-06-14 00:00;91,3
2017-06-14 00:15;90,2
2017-06-14 00:30;90,7
2017-06-14 00:45;88,8
2017-06-14 01:00;89,05
2017-06-14 01:15;91,05
2017-06-14 01:30;87
2017-06-14 01:45;87,35
2017-06-14 02:00;88,85
2017-06-14 02:15;87,55
2017-06-14 02:30;86,5
2017-06-14 02:45;87,25
2017-06-14 03:00;87
2017-06-14 03:15;86,3
2017-06-14 03:30;85,65
2017-06-14 03:45;86,7
2017-06-14 04:00;86,35
2017-06-14 04:15;85,9
2017-06-14 04:30;85,9
2017-06-14 04:45;85,3
2017-06-14 05:00;89,9
2017-06-14 05:15;90,5
2017-06-14 05:30;94,35
2017-06-14 05:45;98,85
2017-06-14 06:00;95,95
2017-06-14 06:15;91,75
2017-06-14 06:30;98,5
2017-06-14 06:45;96,7
2017-06-14 07:00;94,7
2017-06-14 07:15;107,7
2017-06-14 07:30;163,5
2017-06-14 07:45;117,9
2017-06-14 08:00;120,95
2017-06-14 08:15;119,55
2017-06-14 08:30;114,35
2017-06-14 08:45;133,6
2017-06-14 09:00;133,9
2017-06-14 09:15;150,25
2017-06-14 09:30;151,2
2017-06-14 09:45;151
2017-06-14 10:00;157,85
2017-06-14 10:15;153,6
2017-06-14 10:30;169,15
2017-06-14 10:45;205,25
2017-06-14 11:00;228,2
2017-06-14 11:15;210,6
2017-06-14 11:30;209,45
2017-06-14 11:45;223,7
2017-06-14 12:00;222,3
2017-06-14 12:15;218,6
2017-06-14 12:30;222,3
2017-06-14 12:45;228,5
2017-06-14 13:00;222,5
2017-06-14 13:15;224,45
2017-06-14 13:30;221,05
2017-06-14 13:45;226,65
2017-06-14 14:00;224,65
2017-06-14 14:15;223,3
2017-06-14 14:30;226,25
2017-06-14 14:45;221,7
2017-06-14 15:00;220,8
2017-06-14 15:15;212,75
2017-06-14 15:30;208,5
2017-06-14 15:45;199,65
2017-06-14 16:00;193,85
2017-06-14 16:15;182,25
2017-06-14 16:30;177,15
2017-06-14 16:45;175,5
2017-06-14 17:00;173,55
2017-06-14 17:15;175,15
2017-06-14 17:30;162,65
2017-06-14 17:45;164,65
2017-06-14 18:00;160,2
2017-06-14 18:15;156,8
2017-06-14 18:30;154,5
2017-06-14 18:45;154,55
2017-06-14 19:00;147,2
2017-06-14 19:15;139,15
2017-06-14 19:30;135,65
2017-06-14 19:45;135,45
2017-06-14 20:00;129,25
2017-06-14 20:15;126,45
2017-06-14 20:30;121,7
2017-06-14 20:45;126,55
2017-06-14 21:00;123,5
2017-06-14 21:15;118,7
2017-06-14 21:30;116,5
2017-06-14 21:45;113,4
2017-06-14 22:00;105,75
2017-06-14 22:15;105,4
2017-06-14 22:30;100,35
2017-06-14 22:45;98,25
2017-06-14 23:00;99,85
2017-06-14 23:15;98,8
2017-06-14 23:30;97
2017-06-14 23:45;98,35
2017-06-15 00:00;96,8
2017-06-15 00:15;95,7
2017-06-15 00:30;96,15
2017-06-15 00:45;94,8
2017-06-15 01:00;95,15
2017-06-15 01:15;94,3
2017-06-15 01:30;94,05
2017-06-15 01:45;91,25
2017-06-15 02:00;91,2
2017-06-15 02:15;93,85
2017-06-15 02:30;90,65
2017-06-15 02:45;91,4
2017-06-15 03:00;91,05
2017-06-15 03:15;90,5
2017-06-15 03:30;90
2017-06-15 03:45;95,65
2017-06-15 04:00;93,05
2017-06-15 04:15;91,9
2017-06-15 04:30;94,1
2017-06-15 04:45;91,7
2017-06-15 05:00;94,05
2017-06-15 05:15;100,25
2017-06-15 05:30;98,1
2017-06-15 05:45;104,55
2017-06-15 06:00;103,2
2017-06-15 06:15;97,6
2017-06-15 06:30;107,4
2017-06-15 06:45;110,9
2017-06-15 07:00;98,55
2017-06-15 07:15;102,05
2017-06-15 07:30;154,3
2017-06-15 07:45;125,35
2017-06-15 08:00;127,3
2017-06-15 08:15;156,65
2017-06-15 08:30;171,5
2017-06-15 08:45;153,55
2017-06-15 09:00;161,25
2017-06-15 09:15;174,95
2017-06-15 09:30;167,25
2017-06-15 09:45;169,75
2017-06-15 10:00;183,55
2017-06-15 10:15;186
2017-06-15 10:30;191,45
2017-06-15 10:45;208,8
2017-06-15 11:00;206,05
2017-06-15 11:15;211,75
2017-06-15 11:30;227,65
2017-06-15 11:45;224,3
2017-06-15 12:00;238,7
2017-06-15 12:15;240,4
2017-06-15 12:30;239,1
2017-06-15 12:45;246,5
2017-06-15 13:00;236,5
2017-06-15 13:15;240,85
2017-06-15 13:30;256,5
2017-06-15 13:45;246,2
2017-06-15 14:00;255,4
2017-06-15 14:15;251,15
2017-06-15 14:30;237,5
2017-06-15 14:45;248,9
2017-06-15 15:00;224,25
2017-06-15 15:15;230,1
2017-06-15 15:30;225,5
2017-06-15 15:45;223,55
2017-06-15 16:00;220,5
2017-06-15 16:15;200,5
2017-06-15 16:30;184,8
2017-06-15 16:45;180,1
2017-06-15 17:00;173,5
2017-06-15 17:15;174,8
2017-06-15 17:30;168,2
2017-06-15 17:45;162,2
2017-06-15 18:00;163,15
2017-06-15 18:15;159,95
2017-06-15 18:30;150,8
2017-06-15 18:45;153,6
2017-06-15 19:00;153,6
2017-06-15 19:15;146,4
2017-06-15 19:30;147,55
2017-06-15 19:45;138,15
2017-06-15 20:00;133,75
2017-06-15 20:15;131,45
2017-06-15 20:30;127,55
2017-06-15 20:45;131,6
2017-06-15 21:00;128,9
2017-06-15 21:15;126,05
2017-06-15 21:30;123,95
2017-06-15 21:45;122,7
2017-06-15 22:00;119,35
2017-06-15 22:15;114,5
2017-06-15 22:30;115,1
2017-06-15 22:45;109,1
2017-06-15 23:00;108,75
2017-06-15 23:15;107,05
2017-06-15 23:30;105,4
2017-06-15 23:45;107,35
2017-06-16 00:00;104,9
2017-06-16 00:15;104,55
2017-06-16 00:30;107,3
2017-06-16 00:45;100,35
2017-06-16 01:00;94,3
2017-06-16 01:15;95,35
2017-06-16 01:30;92,6
2017-06-16 01:45;93,2
2017-06-16 02:00;90,75
2017-06-16 02:15;91,25
2017-06-16 02:30;92,1
2017-06-16 02:45;90,9
2017-06-16 03:00;89,65
2017-06-16 03:15;90,2
2017-06-16 03:30;90,55
2017-06-16 03:45;90,15
2017-06-16 04:00;88,95
2017-06-16 04:15;89,8
2017-06-16 04:30;87,9
2017-06-16 04:45;90
2017-06-16 05:00;92,6
2017-06-16 05:15;93,05
2017-06-16 05:30;99,8
2017-06-16 05:45;101,5
2017-06-16 06:00;97,3
2017-06-16 06:15;92,05
2017-06-16 06:30;90,7
2017-06-16 06:45;105,05
2017-06-16 07:00;97,35
2017-06-16 07:15;97,05
2017-06-16 07:30;150,5
2017-06-16 07:45;117,4
2017-06-16 08:00;124,55
2017-06-16 08:15;158,2
2017-06-16 08:30;168,25
2017-06-16 08:45;154,95
2017-06-16 09:00;162,6
2017-06-16 09:15;171,1
2017-06-16 09:30;176,65
2017-06-16 09:45;173,65
2017-06-16 10:00;174,9
2017-06-16 10:15;190,8
2017-06-16 10:30;204
2017-06-16 10:45;204,7
2017-06-16 11:00;207,75
2017-06-16 11:15;207,55
2017-06-16 11:30;230,2
2017-06-16 11:45;234
2017-06-16 12:00;233,6
2017-06-16 12:15;232,3
2017-06-16 12:30;238,2
2017-06-16 12:45;234
2017-06-16 13:00;219,15
2017-06-16 13:15;224,1
2017-06-16 13:30;226,95
2017-06-16 13:45;219,1
2017-06-16 14:00;222,2
2017-06-16 14:15;218,2
2017-06-16 14:30;220,2
2017-06-16 14:45;216,15
2017-06-16 15:00;215,05
2017-06-16 15:15;212,15
2017-06-16 15:30;209,1
2017-06-16 15:45;204,85
2017-06-16 16:00;198,65
2017-06-16 16:15;192,55
2017-06-16 16:30;183
2017-06-16 16:45;181,9
2017-06-16 17:00;177,7
2017-06-16 17:15;176,6
2017-06-16 17:30;183,7
2017-06-16 17:45;175,7
2017-06-16 18:00;168,75
2017-06-16 18:15;157,85
2017-06-16 18:30;157,55
2017-06-16 18:45;153,05
2017-06-16 19:00;149,45
2017-06-16 19:15;141,75
2017-06-16 19:30;137,65
2017-06-16 19:45;138,55
2017-06-16 20:00;130,5
2017-06-16 20:15;125,6
2017-06-16 20:30;124,4
2017-06-16 20:45;125,25
2017-06-16 21:00;124,8
2017-06-16 21:15;118,75
2017-06-16 21:30;117,15
2017-06-16 21:45;118,5
2017-06-16 22:00;113,7
2017-06-16 22:15;109,4
2017-06-16 22:30;107,85
2017-06-16 22:45;109
2017-06-16 23:00;108,15
2017-06-16 23:15;105,7
2017-06-16 23:30;104,8
2017-06-16 23:45;105,25
2017-06-17 00:00;105,05
2017-06-17 00:15;102,1
2017-06-17 00:30;104,05
2017-06-17 00:45;105,9
2017-06-17 01:00;103,75
2017-06-17 01:15;102,8
2017-06-17 01:30;97,55
2017-06-17 01:45;96,05
2017-06-17 02:00;94,05
2017-06-17 02:15;94,15
2017-06-17 02:30;96,75
2017-06-17 02:45;94,5
2017-06-17 03:00;94
2017-06-17 03:15;94,3
2017-06-17 03:30;95,4
2017-06-17 03:45;94,6
2017-06-17 04:00;92,9
2017-06-17 04:15;89,45
2017-06-17 04:30;90,55
2017-06-17 04:45;89,1
2017-06-17 05:00;87,55
2017-06-17 05:15;89,55
2017-06-17 05:30;89,95
2017-06-17 05:45;91,35
2017-06-17 06:00;92,35
2017-06-17 06:15;91,4
2017-06-17 06:30;92,3
2017-06-17 06:45;88,85
2017-06-17 07:00;86,6
2017-06-17 07:15;87,85
2017-06-17 07:30;87,4
2017-06-17 07:45;88,3
2017-06-17 08:00;87,05
2017-06-17 08:15;84,6
2017-06-17 08:30;85,7
2017-06-17 08:45;86,6
2017-06-17 09:00;85,45
2017-06-17 09:15;89,65
2017-06-17 09:30;87,55
2017-06-17 09:45;88,25
2017-06-17 10:00;89,15
2017-06-17 10:15;88,95
2017-06-17 10:30;89,95
2017-06-17 10:45;92,5
2017-06-17 11:00;100,8
2017-06-17 11:15;99,65
2017-06-17 11:30;106,5
2017-06-17 11:45;108,1
2017-06-17 12:00;105,7
2017-06-17 12:15;104,9
2017-06-17 12:30;101,4
2017-06-17 12:45;100,35
2017-06-17 13:00;99,85
2017-06-17 13:15;99,5
2017-06-17 13:30;98,7
2017-06-17 13:45;96,3
2017-06-17 14:00;100,2
2017-06-17 14:15;100,65
2017-06-17 14:30;99,2
2017-06-17 14:45;99,3
2017-06-17 15:00;101,85
2017-06-17 15:15;104,2
2017-06-17 15:30;103,25
2017-06-17 15:45;104,55
2017-06-17 16:00;108,7
2017-06-17 16:15;108,7
2017-06-17 16:30;107,4
2017-06-17 16:45;113,15
2017-06-17 17:00;110,9
2017-06-17 17:15;107,5
2017-06-17 17:30;104,95
2017-06-17 17:45;104,5
2017-06-17 18:00;104,9
2017-06-17 18:15;105,15
2017-06-17 18:30;105,85
2017-06-17 18:45;103,3
2017-06-17 19:00;102,15
2017-06-17 19:15;107,15
2017-06-17 19:30;107,95
2017-06-17 19:45;106
2017-06-17 20:00;111,75
2017-06-17 20:15;107,25
2017-06-17 20:30;107,75
2017-06-17 20:45;108,5
2017-06-17 21:00;108,8
2017-06-17 21:15;108,5
2017-06-17 21:30;106,85
2017-06-17 21:45;106,65
2017-06-17 22:00;104,2
2017-06-17 22:15;102,5
2017-06-17 22:30;104,3
2017-06-17 22:45;101,95
2017-06-17 23:00;101,1
2017-06-17 23:15;102,6
2017-06-17 23:30;99,35
2017-06-17 23:45;98,05
2017-06-18 00:00;94,95
2017-06-18 00:15;95,05
2017-06-18 00:30;95,95
2017-06-18 00:45;94,6
2017-06-18 01:00;94,55
2017-06-18 01:15;91,7
2017-06-18 01:30;89,8
2017-06-18 01:45;91,5
2017-06-18 02:00;90,05
2017-06-18 02:15;90,15
2017-06-18 02:30;91,75
2017-06-18 02:45;91,2
2017-06-18 03:00;91,6
2017-06-18 03:15;88,6
2017-06-18 03:30;92,8
2017-06-18 03:45;93,65
2017-06-18 04:00;92
2017-06-18 04:15;92,55
2017-06-18 04:30;93,15
2017-06-18 04:45;91,15
2017-06-18 05:00;94,75
2017-06-18 05:15;95,85
2017-06-18 05:30;95,6
2017-06-18 05:45;97,7
2017-06-18 06:00;97,85
2017-06-18 06:15;92,35
2017-06-18 06:30;92,7
2017-06-18 06:45;91,5
2017-06-18 07:00;82,2
2017-06-18 07:15;83,05
2017-06-18 07:30;85,35
2017-06-18 07:45;84
2017-06-18 08:00;84,65
2017-06-18 08:15;85,3
2017-06-18 08:30;83,7
2017-06-18 08:45;82,7
2017-06-18 09:00;87,55
2017-06-18 09:15;87,2
2017-06-18 09:30;86,9
2017-06-18 09:45;88,55
2017-06-18 10:00;87,65
2017-06-18 10:15;86,8
2017-06-18 10:30;90,25
2017-06-18 10:45;90,25
2017-06-18 11:00;91,7
2017-06-18 11:15;97,15
2017-06-18 11:30;99,25
2017-06-18 11:45;96,6
2017-06-18 12:00;100
2017-06-18 12:15;98,9
2017-06-18 12:30;99,75
2017-06-18 12:45;91,45
2017-06-18 13:00;96,55
2017-06-18 13:15;96,9
2017-06-18 13:30;95,6
2017-06-18 13:45;99,4
2017-06-18 14:00;98,25
2017-06-18 14:15;102,5
2017-06-18 14:30;103,8
2017-06-18 14:45;98,95
2017-06-18 15:00;98,8
2017-06-18 15:15;98,5
2017-06-18 15:30;95,1
2017-06-18 15:45;99,4
2017-06-18 16:00;92,75
2017-06-18 16:15;92,2
2017-06-18 16:30;93
2017-06-18 16:45;96,65
2017-06-18 17:00;92,65
2017-06-18 17:15;94,45
2017-06-18 17:30;93,55
2017-06-18 17:45;97,9
2017-06-18 18:00;98,75
2017-06-18 18:15;92,05
2017-06-18 18:30;90,5
2017-06-18 18:45;92,8
2017-06-18 19:00;91,5
2017-06-18 19:15;93,75
2017-06-18 19:30;94,95
2017-06-18 19:45;100
2017-06-18 20:00;99,6
2017-06-18 20:15;104,55
2017-06-18 20:30;104,65
2017-06-18 20:45;107,85
2017-06-18 21:00;108,4
2017-06-18 21:15;106,9
2017-06-18 21:30;104,85
2017-06-18 21:45;103,4
2017-06-18 22:00;100,05
2017-06-18 22:15;99,5
2017-06-18 22:30;99,95
2017-06-18 22:45;101,05
2017-06-18 23:00;97,55
2017-06-18 23:15;93,6
2017-06-18 23:30;92,45
2017-06-18 23:45;90,1

